[[{"header":{"parameterUnit":"m.s-1","parameterCategory":1,"la1":30.2991,"la2":30.254,"lo1":-89.0895,"lo2":-89.0444,"dy":0.0017,"dx":0.0017,"nx":28,"ny":28,"refTime":"2025-01-04T09:00:00:Z","depth":0,"parameterNumber":2,"parameterNumberName":"U-component_of_WINDS"},"data":[0,0,0,0,0,0,0,0,0,0,0,0,0,0,0,0,0,0,0,0,0,0,0,0,0,0,0,0,0,0,0,0,0,0,0,0,0,0,0,0,0,0,0,0,0,0,0,0,0,0,0,0,0,0,0,0,0,0,-6.5026,-6.5027,0,-6.5096,-6.5097,-6.5098,-6.4994,-6.499,-6.4987,-6.4983,-6.5054,-6.5059,-6.5064,0,0,0,0,0,0,0,0,0,0,0,0,0,-6.4805,-6.4809,-6.5026,-6.5027,-6.5028,-6.5096,-6.5097,-6.5098,-6.4995,-6.499,-6.4986,-6.4982,-6.5052,-6.5059,-6.5065,0,0,0,0,0,0,0,0,0,0,0,0,0,-6.489,-6.4811,-6.5026,-6.4985,-6.4982,-6.5096,-6.5097,-6.5098,-6.4996,-6.499,-6.4985,-6.498,-6.505,-6.5058,-6.5066,-6.5223,0,0,-6.509,-6.5093,0,0,0,0,0,0,0,0,-6.4886,-6.4899,-6.499,-6.4988,-6.4985,-6.5031,-6.5045,-6.514,-6.4997,-6.499,-6.4983,-6.4977,-6.5051,-6.5058,-6.5083,-6.5226,-6.5229,-6.5091,-6.5095,-6.5099,-6.5101,0,0,0,0,0,0,0,-6.488,-6.4895,-6.5054,-6.4992,-6.4988,-6.4963,-6.4969,-6.5062,-6.505,-6.4991,-6.4983,-6.4993,-6.5048,-6.5076,-6.5084,-6.5231,-6.509,-6.5097,-6.5102,-6.5105,-6.5506,-6.5511,0,0,0,0,0,0,-6.4879,-6.4891,-6.5052,-6.5056,-6.4921,-6.4972,-6.4978,-6.5022,-6.5049,-6.5048,-6.4998,-6.4988,-6.5065,-6.5075,-6.5086,-6.527,-6.5099,-6.5106,-6.5111,-6.55,-6.5507,-6.5513,0,0,0,0,0,0,-6.4875,-6.4894,-6.5049,-6.4972,-6.4989,-6.4981,-6.503,-6.5026,-6.5053,-6.5054,-6.5051,-6.5028,-6.5061,-6.5075,-6.519,-6.5271,-6.511,-6.5117,-6.5493,-6.5502,-6.551,-6.564,0,0,0,0,0,0,-6.4869,-6.4893,-6.4953,-6.4974,-6.4994,-6.5151,-6.5036,-6.5031,-6.5067,-6.5055,-6.5082,-6.5081,-6.5058,-6.5178,-6.5198,-6.5279,-6.5123,-6.5485,-6.5497,-6.5507,-6.5628,-6.5652,-6.5673,0,0,0,0,0,-6.4861,-6.4986,-6.4956,-6.4976,-6.5068,-6.5156,-6.5167,-6.5138,-6.5074,-6.5133,-6.5134,-6.508,-6.5261,-6.5191,-6.5212,-6.5297,-6.548,-6.5494,-6.5506,-6.5618,-6.5648,-6.5672,0,0,0,0,0,0,-6.4974,-6.4988,-6.4955,-6.5091,-6.5123,-6.5138,-6.5212,-6.5171,-6.5221,-6.5208,-6.517,-6.5177,-6.53,-6.5311,-6.5233,-6.545,-6.5359,-6.5377,-6.5437,-6.5465,-6.5487,-6.5479,-6.5129,0,0,0,0,0,-6.5015,-6.5086,-6.5095,-6.5214,-6.5232,-6.522,-6.5257,-6.5233,-6.5264,-6.5277,-6.5286,-6.5319,-6.5383,-6.5426,-6.5485,-6.5632,-6.5635,-6.5701,-6.5723,-6.5741,-6.5755,-6.5832,-6.586,-6.5557,-6.5557,-6.5557,0,0,-6.51,-6.5117,-6.5163,-6.5237,-6.5259,-6.5332,-6.5232,-6.5314,-6.5367,-6.529,-6.5397,-6.5406,-6.5441,-6.5572,-6.563,-6.5584,-6.5841,-6.5758,-6.5772,-6.5777,-6.5849,-6.5877,-6.5903,-6.5566,-6.5564,-6.5563,0,0,-6.529,-6.5312,-6.5412,-6.5437,-6.5472,-6.5464,-6.5489,-6.5511,-6.5514,-6.5622,-6.5565,-6.5629,-6.5741,-6.5767,-6.5795,-6.6,-6.595,-6.6021,-6.6134,-6.6209,-6.6233,-6.6254,-6.6324,-6.6349,-6.6036,-6.6036,-6.6037,0,-6.539,-6.5498,-6.5469,-6.5555,-6.5588,-6.5524,-6.5624,-6.5651,-6.5703,-6.5728,-6.5677,-6.5816,-6.5835,-6.597,-6.602,-6.6046,-6.6072,-6.6014,-6.6232,-6.6253,-6.6272,-6.6338,-6.6365,-6.6044,-6.6043,-6.6043,-6.6042,0,-6.5618,-6.5695,-6.5772,-6.5825,-6.5868,-6.5962,-6.5946,-6.5994,-6.5967,-6.5964,-6.6075,-6.6097,-6.6158,-6.619,-6.6164,-6.6322,-6.6292,-6.6239,-6.6145,-6.6309,-6.637,-6.6396,-6.6056,-6.6053,-6.605,-6.6048,0,0,-6.5876,-6.5914,-6.5942,-6.5965,-6.6001,-6.6059,-6.6151,-6.6212,-6.6252,-6.6293,-6.6366,-6.6464,-6.6414,-6.6446,-6.6424,-6.6491,-6.6649,-6.6429,-6.6429,-6.6465,-6.682,-6.6857,-6.6887,-6.6619,-6.6624,-6.6628,-6.6816,0,-6.6063,-6.6219,-6.6197,-6.6347,-6.6416,-6.6358,-6.6438,-6.6468,-6.647,-6.6529,-6.6531,-6.6599,-6.653,-6.6549,-6.6613,-6.6616,-6.6719,-6.6603,-6.6685,-6.6688,-6.6672,-6.6919,-6.6958,-6.7134,-6.684,-6.6844,-6.6847,0,-6.63,-6.6349,-6.6506,-6.6532,-6.656,-6.6631,-6.6685,-6.6744,-6.6778,-6.6775,-6.6812,-6.6779,-6.687,-6.6781,-6.6905,-6.6826,-6.686,-6.6867,-6.6873,-6.6875,-6.6773,-6.6923,-6.719,-6.7214,-6.6885,-6.6882,-6.688,0,-6.6467,-6.6573,-6.668,-6.6702,-6.6736,-6.6787,-6.6804,-6.6833,-6.6871,-6.692,-6.6944,-6.7003,-6.7034,-6.708,-6.7063,-6.7,-6.7191,-6.71,-6.7188,-6.7188,-6.7225,-6.7222,-6.7496,-6.7256,-6.7256,-6.7255,-6.7255,0,-6.6674,-6.6771,-6.6755,-6.6821,-6.6929,-6.6904,-6.7011,-6.7021,-6.7048,-6.7114,-6.707,-6.7133,-6.711,-6.7172,-6.716,-6.7263,-6.7279,-6.7277,-6.7272,-6.7278,-6.7277,-6.7295,-6.728,-6.7262,-6.7261,-6.726,-6.7258,0,-6.6875,-6.6869,-6.6981,-6.7005,-6.7014,-6.7092,-6.7112,-6.7174,-6.7174,-6.7258,-6.7276,-6.7276,-6.7347,-6.7336,-6.7416,-6.7408,-6.7535,-6.7518,-6.7523,-6.7517,-6.7603,-6.7593,-6.7893,-6.793,-6.7672,-6.7674,-6.7677,0,-6.7005,-6.7079,-6.7111,-6.7152,-6.7172,-6.724,-6.7279,-6.7259,-6.7302,-6.7348,-6.7404,-6.7471,-6.7523,-6.7639,-6.7645,-6.7706,-6.7686,-6.7788,-6.7694,-6.7698,-6.7682,-6.7676,-6.7682,-6.7804,-6.7807,-6.7809,-6.7811,0,-6.7235,-6.7229,-6.7286,-6.7344,-6.7392,-6.7437,-6.7477,-6.7514,-6.7498,-6.7548,-6.762,-6.7661,-6.7742,-6.7808,-6.7866,-6.7883,-6.7844,-6.7842,-6.7864,-6.7868,-6.7866,-6.7864,-6.7567,-6.7833,-6.7831,-6.7829,-6.7828,-6.7827,-6.7401,-6.7463,-6.7495,-6.7562,-6.7591,-6.763,-6.7688,-6.7696,-6.7756,-6.782,-6.7806,-6.7887,-6.7921,-6.7994,-6.8018,-6.8081,-6.8043,-6.8077,-6.8085,-6.8092,-6.81,-6.7862,-6.8092,-6.8091,-6.8091,-6.809,-6.809,0,-6.7624,-6.7643,-6.7705,-6.7762,-6.7815,-6.7777,-6.782,-6.7866,-6.7938,-6.7974,-6.8026,-6.8109,-6.8175,-6.8188,-6.825,-6.8298,-6.8281,-6.8314,-6.8307,-6.8311,-6.8132,-6.8104,-6.8326,-6.8326,-6.8326,-6.8326,-6.8326,-6.8326,-6.7745,-6.7848,-6.7846,-6.7963,-6.7982,-6.806,-6.8088,-6.8124,-6.8152,-6.8247,-6.8301,-6.831,-6.8336,-6.8401,-6.8459,-6.8461,-6.8484,-6.8523,-6.8518,-6.8348,-6.8324,-6.8302,-6.8275,-6.8529,-6.8529,-6.8691,-6.8692,-6.8694]},{"header":{"parameterUnit":"m.s-1","parameterCategory":1,"la1":30.2991,"la2":30.254,"lo1":-89.0895,"lo2":-89.0444,"dy":0.0017,"dx":0.0017,"nx":28,"ny":28,"refTime":"2025-01-04T09:00:00:Z","depth":0,"parameterNumber":3,"parameterNumberName":"V-component_of_WINDS"},"data":[0,0,0,0,0,0,0,0,0,0,0,0,0,0,0,0,0,0,0,0,0,0,0,0,0,0,0,0,0,0,0,0,0,0,0,0,0,0,0,0,0,0,0,0,0,0,0,0,0,0,0,0,0,0,0,0,0,0,1.6601,1.6603,0,1.6771,1.6773,1.6775,1.6789,1.6787,1.6786,1.6784,1.6959,1.6965,1.6971,0,0,0,0,0,0,0,0,0,0,0,0,0,1.6293,1.6298,1.6601,1.6603,1.6605,1.6771,1.6773,1.6775,1.679,1.6787,1.6785,1.6783,1.6957,1.6964,1.6972,0,0,0,0,0,0,0,0,0,0,0,0,0,1.6441,1.63,1.6601,1.6632,1.6637,1.677,1.6773,1.6776,1.679,1.6787,1.6785,1.6782,1.6954,1.6964,1.6973,1.7087,0,0,1.7002,1.7006,0,0,0,0,0,0,0,0,1.6432,1.6452,1.6626,1.663,1.6636,1.6756,1.6728,1.688,1.6791,1.6732,1.6784,1.6781,1.6894,1.6908,1.6946,1.7095,1.7102,1.7003,1.7009,1.7013,1.7016,0,0,0,0,0,0,0,1.6422,1.6445,1.6668,1.6628,1.6634,1.6639,1.6657,1.6757,1.6826,1.6737,1.6738,1.6758,1.6896,1.6937,1.695,1.7105,1.7003,1.7011,1.7017,1.7021,1.7359,1.7362,0,0,0,0,0,0,1.6406,1.6436,1.6663,1.6673,1.6525,1.6647,1.6667,1.672,1.6825,1.6838,1.676,1.6758,1.6922,1.6939,1.6956,1.7099,1.7013,1.7022,1.7027,1.7356,1.736,1.7363,0,0,0,0,0,0,1.6399,1.6426,1.6656,1.6555,1.6585,1.6655,1.6715,1.6725,1.6766,1.6843,1.6855,1.6789,1.692,1.6943,1.7055,1.7105,1.7026,1.7035,1.7352,1.7357,1.7362,1.7383,0,0,0,0,0,0,1.639,1.6423,1.6466,1.6556,1.659,1.6751,1.6718,1.673,1.6782,1.6781,1.6873,1.6886,1.692,1.7041,1.7064,1.7117,1.7042,1.7348,1.7354,1.736,1.7378,1.7388,1.7396,0,0,0,0,0,1.6379,1.6465,1.6468,1.6495,1.6645,1.6753,1.6773,1.681,1.6786,1.6831,1.6881,1.6883,1.7095,1.7052,1.7079,1.7135,1.7345,1.7352,1.736,1.7374,1.7386,1.7396,0,0,0,0,0,0,1.6378,1.6477,1.6482,1.6599,1.6668,1.6756,1.6813,1.6821,1.6899,1.6894,1.6938,1.6958,1.7069,1.7113,1.7063,1.7252,1.7218,1.7231,1.7219,1.7231,1.724,1.7228,1.705,0,0,0,0,0,1.6392,1.6471,1.6553,1.6649,1.6683,1.6742,1.679,1.6813,1.6886,1.6916,1.6974,1.7045,1.7128,1.7182,1.7262,1.7384,1.7406,1.7436,1.7445,1.7452,1.7463,1.7534,1.7549,1.7387,1.7387,1.7387,0,0,1.6421,1.6484,1.6531,1.665,1.6706,1.6788,1.6766,1.6853,1.6915,1.6929,1.7039,1.7084,1.7167,1.7285,1.7339,1.7325,1.7513,1.7462,1.7467,1.7474,1.7543,1.7558,1.7572,1.7392,1.7392,1.7391,0,0,1.6516,1.6571,1.6658,1.6715,1.68,1.6839,1.686,1.6948,1.6978,1.7089,1.7102,1.7177,1.7318,1.7378,1.7426,1.7546,1.7553,1.7571,1.762,1.7688,1.7701,1.7712,1.7758,1.7773,1.7582,1.7582,1.7582,0,1.6541,1.6664,1.6702,1.679,1.6843,1.6859,1.6949,1.7003,1.711,1.7147,1.7128,1.7308,1.7365,1.7498,1.7528,1.7566,1.7593,1.7561,1.7696,1.7708,1.7719,1.7763,1.7779,1.7584,1.7584,1.7584,1.7583,0,1.6693,1.6778,1.6839,1.6943,1.7002,1.709,1.7143,1.7199,1.7217,1.7259,1.7373,1.7442,1.7538,1.7571,1.7589,1.7708,1.7697,1.7686,1.7653,1.7736,1.7778,1.7795,1.7587,1.7586,1.7586,1.7585,0,0,1.6792,1.6916,1.6938,1.6987,1.7083,1.7151,1.7241,1.7335,1.7383,1.7457,1.7535,1.7656,1.7648,1.7703,1.7728,1.7788,1.7882,1.7771,1.7774,1.7791,1.8021,1.8029,1.8048,1.7887,1.789,1.7892,1.8015,0,1.6899,1.7059,1.7097,1.7235,1.7316,1.7334,1.7413,1.7481,1.7523,1.7599,1.7645,1.7731,1.7713,1.7747,1.7806,1.7858,1.7929,1.785,1.7962,1.7965,1.7942,1.807,1.8078,1.819,1.8031,1.8034,1.8036,0,1.7046,1.7124,1.727,1.7358,1.7394,1.7464,1.7555,1.7626,1.7705,1.7732,1.7795,1.7815,1.7911,1.7872,1.8007,1.7952,1.8,1.8033,1.8038,1.8051,1.8006,1.8088,1.8227,1.8244,1.8062,1.806,1.8058,0,1.7106,1.7248,1.7355,1.7395,1.75,1.7549,1.7596,1.7672,1.7727,1.7806,1.7843,1.7933,1.7982,1.8052,1.8096,1.8063,1.8228,1.8193,1.8255,1.8254,1.829,1.8287,1.844,1.8317,1.8317,1.8317,1.8316,0,1.7223,1.7313,1.7383,1.7449,1.7551,1.7594,1.7694,1.774,1.7808,1.7884,1.7905,1.7976,1.803,1.8109,1.8144,1.8252,1.8273,1.8299,1.8308,1.8298,1.8295,1.8331,1.8326,1.8321,1.832,1.8319,1.8319,0,1.7308,1.7359,1.7477,1.7567,1.7592,1.7663,1.7741,1.7807,1.7849,1.7946,1.7971,1.8038,1.8133,1.8184,1.8302,1.8326,1.8448,1.8451,1.8421,1.8425,1.8485,1.848,1.8668,1.8696,1.8553,1.8554,1.8555,0,1.7381,1.745,1.7548,1.7601,1.7648,1.7732,1.7789,1.7835,1.7893,1.799,1.8044,1.814,1.822,1.837,1.8431,1.8522,1.8529,1.8589,1.8543,1.8532,1.8533,1.8529,1.8537,1.8597,1.8598,1.86,1.86,0,1.7505,1.7527,1.7607,1.7698,1.7766,1.7839,1.7912,1.7954,1.8012,1.8077,1.8174,1.8236,1.8357,1.8453,1.855,1.8598,1.8611,1.8614,1.8634,1.8626,1.8607,1.8621,1.8445,1.861,1.8609,1.8608,1.8608,1.8607,1.7587,1.7651,1.7731,1.7821,1.7881,1.7949,1.8016,1.8067,1.8149,1.8252,1.8274,1.8377,1.8457,1.8588,1.8639,1.8722,1.871,1.8738,1.8746,1.8752,1.8756,1.8592,1.8739,1.8739,1.8739,1.8739,1.8739,0,1.7714,1.7767,1.7849,1.7951,1.8023,1.8027,1.8108,1.8168,1.8259,1.8332,1.841,1.8524,1.8617,1.8685,1.8781,1.8834,1.8843,1.8858,1.8856,1.8868,1.876,1.8734,1.885,1.885,1.885,1.885,1.885,1.885,1.7789,1.7898,1.793,1.807,1.8122,1.8223,1.827,1.8334,1.8393,1.8518,1.8596,1.864,1.8712,1.8814,1.8901,1.8918,1.8954,1.897,1.8988,1.8886,1.8875,1.8863,1.884,1.8976,1.8976,1.9089,1.909,1.9091]}]]